| time (UTC) | temp F | wind direction | speed knots | gust knots | rain 1hr in | rain 24hr in | rain mn in | humidity % | barometer mb |
| 20260504223223 | 80 | 154 | 5.2 | 7.0 | 0.00 | 0.00 | 0.00 | 62 | 1011.5 |
| 20260504222721 | 80 | 187 | 3.5 | 6.1 | 0.00 | 0.00 | 0.00 | 62 | 1011.6 |
| 20260504222217 | 81 | 208 | 1.7 | 3.5 | 0.00 | 0.00 | 0.00 | 61 | 1011.9 |
| 20260504221714 | 81 | 220 | 1.7 | 3.5 | 0.00 | 0.00 | 0.00 | 61 | 1011.8 |
| 20260504221211 | 80 | 187 | 0.9 | 5.2 | 0.00 | 0.00 | 0.00 | 61 | 1011.8 |
| 20260504220708 | 80 | 221 | 1.7 | 5.2 | 0.00 | 0.00 | 0.00 | 61 | 1011.8 |
| 20260504220206 | 80 | 213 | 3.5 | 7.0 | 0.00 | 0.00 | 0.00 | 61 | 1012.0 |
| 20260504215702 | 80 | 152 | 2.6 | 5.2 | 0.00 | 0.00 | 0.00 | 61 | 1011.8 |
| 20260504215159 | 81 | 173 | 3.5 | 7.8 | 0.00 | 0.00 | 0.00 | 60 | 1012.1 |
| 20260504214655 | 82 | 231 | 2.6 | 3.5 | 0.00 | 0.00 | 0.00 | 59 | 1012.1 |
| 20260504214151 | 81 | 231 | 0.9 | 6.1 | 0.00 | 0.00 | 0.00 | 60 | 1011.9 |
| 20260504213648 | 81 | 188 | 1.7 | 5.2 | 0.00 | 0.00 | 0.00 | 59 | 1012.3 |
| 20260504213145 | 82 | 151 | 1.7 | 5.2 | 0.00 | 0.00 | 0.00 | 59 | 1012.4 |
| 20260504212641 | 82 | 197 | 1.7 | 1.7 | 0.00 | 0.00 | 0.00 | 58 | 1012.1 |
| 20260504212138 | 82 | 240 | 4.3 | 7.8 | 0.00 | 0.00 | 0.00 | 57 | 1012.3 |
| 20260504211636 | 82 | 209 | 1.7 | 3.5 | 0.00 | 0.00 | 0.00 | 58 | 1012.4 |
| 20260504211132 | 82 | 198 | 3.5 | 6.1 | 0.00 | 0.00 | 0.00 | 58 | 1012.6 |
| 20260504210630 | 81 | 102 | 3.5 | 6.1 | 0.00 | 0.00 | 0.00 | 58 | 1012.5 |
| 20260504210125 | 83 | 242 | 5.2 | 7.8 | 0.00 | 0.00 | 0.00 | 56 | 1012.7 |
| 20260504205623 | 85 | 174 | 1.7 | 6.1 | 0.00 | 0.00 | 0.00 | 54 | 1012.7 |
| 20260504205121 | 83 | 225 | 0.9 | 5.2 | 0.00 | 0.00 | 0.00 | 56 | 1012.7 |
| 20260504204619 | 82 | 104 | 2.6 | 5.2 | 0.00 | 0.00 | 0.00 | 56 | 1012.9 |
| 20260504204118 | 82 | 170 | 2.6 | 3.5 | 0.00 | 0.00 | 0.00 | 56 | 1012.9 |
| 20260504203616 | 81 | 227 | 0.9 | 3.5 | 0.00 | 0.00 | 0.00 | 58 | 1013.0 |
| 20260504203114 | 81 | 211 | 2.6 | 7.0 | 0.00 | 0.00 | 0.00 | 58 | 1013.0 |
| 20260504202609 | 82 | 264 | 1.7 | 3.5 | 0.00 | 0.00 | 0.00 | 58 | 1013.1 |
| 20260504202106 | 82 | 200 | 6.1 | 7.8 | 0.00 | 0.00 | 0.00 | 57 | 1013.2 |
| 20260504201603 | 82 | 223 | 3.5 | 5.2 | 0.00 | 0.00 | 0.00 | 57 | 1013.3 |
| 20260504201100 | 81 | 225 | 2.6 | 3.5 | 0.00 | 0.00 | 0.00 | 58 | 1013.6 |
| 20260504200556 | 81 | 250 | 2.6 | 3.5 | 0.00 | 0.00 | 0.00 | 58 | 1013.5 |
| 20260504200053 | 81 | 247 | 4.3 | 7.0 | 0.00 | 0.00 | 0.00 | 57 | 1013.7 |
| 20260504195549 | 80 | 188 | 0.9 | 7.0 | 0.00 | 0.00 | 0.00 | 58 | 1013.8 |
| 20260504195046 | 80 | 270 | 3.5 | 7.0 | 0.00 | 0.00 | 0.00 | 58 | 1013.9 |
| 20260504194542 | 81 | 175 | 1.7 | 5.2 | 0.00 | 0.00 | 0.00 | 58 | 1014.0 |
| 20260504194038 | 81 | 208 | 1.7 | 3.5 | 0.00 | 0.00 | 0.00 | 58 | 1014.2 |
| 20260504193535 | 81 | 182 | 2.6 | 5.2 | 0.00 | 0.00 | 0.00 | 58 | 1014.0 |
| 20260504193034 | 82 | 168 | 1.7 | 3.5 | 0.00 | 0.00 | 0.00 | 56 | 1014.2 |
| 20260504192531 | 81 | 222 | 0.0 | 3.5 | 0.00 | 0.00 | 0.00 | 59 | 1014.0 |
| 20260504192029 | 80 | 221 | 1.7 | 6.1 | 0.00 | 0.00 | 0.00 | 59 | 1014.1 |
| 20260504191527 | 81 | 243 | 4.3 | 9.6 | 0.00 | 0.00 | 0.00 | 58 | 1014.3 |
| 20260504191023 | 81 | 219 | 0.9 | 2.6 | 0.00 | 0.00 | 0.00 | 58 | 1014.5 |
| 20260504190519 | 81 | 235 | 2.6 | 5.2 | 0.00 | 0.00 | 0.00 | 57 | 1014.7 |
| 20260504190015 | 80 | 209 | 3.5 | 3.5 | 0.00 | 0.00 | 0.00 | 57 | 1014.5 |
| 20260504185512 | 81 | 73 | 1.7 | 7.8 | 0.00 | 0.00 | 0.00 | 57 | 1014.6 |
| 20260504185009 | 81 | 212 | 0.9 | 2.6 | 0.00 | 0.00 | 0.00 | 56 | 1014.5 |
| 20260504184504 | 81 | 210 | 1.7 | 2.6 | 0.00 | 0.00 | 0.00 | 56 | 1014.6 |
| 20260504184000 | 81 | 208 | 1.7 | 5.2 | 0.00 | 0.00 | 0.00 | 55 | 1014.8 |
| 20260504183457 | 80 | 234 | 3.5 | 6.1 | 0.00 | 0.00 | 0.00 | 56 | 1015.0 |
| 20260504182955 | 80 | 192 | 0.9 | 5.2 | 0.00 | 0.00 | 0.00 | 55 | 1014.8 |
| 20260504182452 | 81 | 207 | 3.5 | 7.0 | 0.00 | 0.00 | 0.00 | 55 | 1015.0 |
| 20260504181949 | 80 | 150 | 1.7 | 5.2 | 0.00 | 0.00 | 0.00 | 58 | 1015.1 |
| 20260504181446 | 80 | 220 | 3.5 | 7.8 | 0.00 | 0.00 | 0.00 | 57 | 1014.9 |
| 20260504180944 | 79 | 218 | 2.6 | 7.8 | 0.00 | 0.00 | 0.00 | 59 | 1015.1 |
| 20260504180443 | 79 | 141 | 0.9 | 7.0 | 0.00 | 0.00 | 0.00 | 60 | 1015.0 |
| 20260504175941 | 79 | 225 | 1.7 | 5.2 | 0.00 | 0.00 | 0.00 | 59 | 1015.2 |
| 20260504175438 | 79 | 259 | 3.5 | 5.2 | 0.00 | 0.00 | 0.00 | 58 | 1015.4 |
| 20260504174936 | 79 | 241 | 2.6 | 8.7 | 0.00 | 0.00 | 0.00 | 59 | 1015.4 |
| 20260504174433 | 79 | 213 | 3.5 | 6.1 | 0.00 | 0.00 | 0.00 | 58 | 1015.3 |
| 20260504173930 | 79 | 218 | 4.3 | 6.1 | 0.00 | 0.00 | 0.00 | 59 | 1015.4 |
| 20260504173426 | 78 | 255 | 1.7 | 3.5 | 0.00 | 0.00 | 0.00 | 60 | 1015.6 |
| 20260504172924 | 78 | 201 | 3.5 | 5.2 | 0.00 | 0.00 | 0.00 | 60 | 1015.4 |
| 20260504172420 | 78 | 161 | 1.7 | 2.6 | 0.00 | 0.00 | 0.00 | 61 | 1015.4 |
| 20260504171916 | 78 | 175 | 5.2 | 7.8 | 0.00 | 0.00 | 0.00 | 59 | 1015.8 |
| 20260504171414 | 79 | 142 | 1.7 | 5.2 | 0.00 | 0.00 | 0.00 | 60 | 1015.8 |
| 20260504170910 | 79 | 232 | 3.5 | 6.1 | 0.00 | 0.00 | 0.00 | 58 | 1015.8 |
| 20260504170407 | 78 | 252 | 4.3 | 7.0 | 0.00 | 0.00 | 0.00 | 58 | 1016.0 |
| 20260504160326 | 77 | 23 | 1.7 | 5.2 | 0.00 | 0.00 | 0.00 | 62 | 1016.6 |
| 20260504150750 | 74 | 201 | 1.7 | 6.1 | 0.00 | 0.00 | 0.00 | 66 | 1016.9 |
| 20260504150247 | 74 | 201 | 2.6 | 6.1 | 0.00 | 0.00 | 0.00 | 66 | 1017.1 |
| 20260504141217 | 71 | 213 | 0.9 | 3.5 | 0.00 | 0.00 | 0.00 | 68 | 1016.9 |
| 20260504140714 | 70 | 227 | 2.6 | 5.2 | 0.00 | 0.00 | 0.00 | 68 | 1016.9 |
| 20260504140209 | 70 | 201 | 0.9 | 2.6 | 0.00 | 0.00 | 0.00 | 70 | 1016.9 |
| 20260504130637 | 62 | 197 | 0.0 | 0.0 | 0.00 | 0.00 | 0.00 | 83 | 1016.5 |
| 20260504130134 | 61 | 197 | 0.9 | 0.9 | 0.00 | 0.00 | 0.00 | 85 | 1016.7 |
| 20260504110525 | 55 | 198 | 0.0 | 0.0 | 0.00 | 0.00 | 0.00 | 94 | 1016.2 |
| 20260504100442 | 55 | 198 | 0.0 | 0.0 | 0.00 | 0.00 | 0.00 | 95 | 1016.7 |
| 20260504081840 | 57 | 197 | 0.0 | 0.0 | 0.00 | 0.00 | 0.00 | 90 | 1017.4 |
| 20260504081337 | 57 | 197 | 0.0 | 0.0 | 0.00 | 0.00 | 0.00 | 91 | 1017.4 |
| 20260504080833 | 57 | 197 | 0.0 | 0.0 | 0.00 | 0.00 | 0.00 | 90 | 1017.4 |
| 20260504080330 | 57 | 197 | 0.0 | 0.0 | 0.00 | 0.00 | 0.00 | 89 | 1017.5 |
| 20260504070257 | 59 | 197 | 0.0 | 0.0 | 0.00 | 0.00 | 0.00 | 86 | 1018.3 |
| 20260504060218 | 60 | 197 | 0.0 | 0.0 | 0.00 | 0.00 | 0.00 | 79 | 1018.8 |
| 20260504050646 | 62 | 197 | 0.0 | 0.0 | 0.00 | 0.00 | 0.00 | 74 | 1019.1 |
| 20260504050143 | 62 | 197 | 0.0 | 0.0 | 0.00 | 0.00 | 0.00 | 72 | 1019.1 |
| 20260504045640 | 63 | 197 | 0.0 | 0.0 | 0.00 | 0.00 | 0.00 | 72 | 1019.1 |
| 20260504045140 | 63 | 197 | 0.0 | 0.0 | 0.00 | 0.00 | 0.00 | 71 | 1019.2 |
| 20260504044638 | 63 | 197 | 0.0 | 0.0 | 0.00 | 0.00 | 0.00 | 70 | 1019.3 |
| 20260504044135 | 63 | 220 | 0.0 | 0.0 | 0.00 | 0.00 | 0.00 | 71 | 1019.2 |
| 20260504043632 | 64 | 220 | 0.0 | 0.0 | 0.00 | 0.00 | 0.00 | 69 | 1019.4 |
| 20260504043129 | 64 | 198 | 0.0 | 0.0 | 0.00 | 0.00 | 0.00 | 68 | 1019.3 |
| 20260504042626 | 64 | 187 | 0.0 | 0.9 | 0.00 | 0.00 | 0.00 | 67 | 1019.2 |
| 20260504042123 | 64 | 216 | 0.0 | 0.0 | 0.00 | 0.00 | 0.00 | 67 | 1019.3 |
| 20260504041618 | 64 | 217 | 0.0 | 0.9 | 0.00 | 0.00 | 0.00 | 67 | 1019.2 |
| 20260504041115 | 65 | 215 | 0.0 | 0.9 | 0.00 | 0.00 | 0.00 | 67 | 1019.4 |
| 20260504040612 | 65 | 214 | 0.0 | 1.7 | 0.00 | 0.00 | 0.00 | 66 | 1019.4 |
| 20260504040109 | 65 | 191 | 0.0 | 0.0 | 0.00 | 0.00 | 0.00 | 65 | 1019.4 |
| 20260504035606 | 65 | 220 | 0.0 | 0.0 | 0.00 | 0.00 | 0.00 | 66 | 1019.4 |
| 20260504035102 | 65 | 229 | 0.9 | 0.9 | 0.00 | 0.00 | 0.00 | 65 | 1019.4 |
| 20260504034600 | 65 | 192 | 0.0 | 0.0 | 0.00 | 0.00 | 0.00 | 64 | 1019.4 |
| 20260504034056 | 66 | 191 | 0.0 | 0.9 | 0.00 | 0.00 | 0.00 | 64 | 1019.3 |
| 20260504033554 | 66 | 219 | 0.0 | 0.9 | 0.00 | 0.00 | 0.00 | 64 | 1019.3 |
| 20260504033052 | 67 | 221 | 0.9 | 0.9 | 0.00 | 0.00 | 0.00 | 62 | 1019.6 |
| 20260504032549 | 67 | 191 | 0.0 | 0.9 | 0.00 | 0.00 | 0.00 | 61 | 1019.3 |
| 20260504032045 | 67 | 197 | 0.0 | 0.0 | 0.00 | 0.00 | 0.00 | 61 | 1019.2 |
| 20260504031542 | 67 | 197 | 0.0 | 0.9 | 0.00 | 0.00 | 0.00 | 60 | 1019.1 |
| 20260504031038 | 67 | 203 | 0.9 | 1.7 | 0.00 | 0.00 | 0.00 | 59 | 1019.1 |
| 20260504030536 | 67 | 191 | 0.0 | 2.6 | 0.00 | 0.00 | 0.00 | 60 | 1019.1 |
| 20260504030032 | 68 | 190 | 1.7 | 1.7 | 0.00 | 0.00 | 0.00 | 59 | 1019.0 |
| 20260504025529 | 68 | 191 | 0.9 | 1.7 | 0.00 | 0.00 | 0.00 | 59 | 1019.0 |
| 20260504025026 | 68 | 189 | 1.7 | 2.6 | 0.00 | 0.00 | 0.00 | 58 | 1018.8 |
| 20260504024523 | 68 | 210 | 2.6 | 3.5 | 0.00 | 0.00 | 0.00 | 58 | 1019.0 |
| 20260504024020 | 68 | 156 | 1.7 | 3.5 | 0.00 | 0.00 | 0.00 | 59 | 1018.9 |
| 20260504023516 | 68 | 214 | 0.0 | 2.6 | 0.00 | 0.00 | 0.00 | 59 | 1019.0 |
| 20260504023012 | 68 | 197 | 0.0 | 1.7 | 0.00 | 0.00 | 0.00 | 59 | 1018.9 |
| 20260504022508 | 68 | 190 | 0.0 | 0.9 | 0.00 | 0.00 | 0.00 | 59 | 1018.9 |
| 20260504022005 | 69 | 210 | 0.0 | 2.6 | 0.00 | 0.00 | 0.00 | 58 | 1018.8 |
| 20260504021503 | 68 | 262 | 0.9 | 2.6 | 0.00 | 0.00 | 0.00 | 58 | 1018.8 |
| 20260504020959 | 68 | 204 | 0.9 | 1.7 | 0.00 | 0.00 | 0.00 | 59 | 1018.7 |
| 20260504020456 | 68 | 209 | 0.0 | 1.7 | 0.00 | 0.00 | 0.00 | 59 | 1018.6 |
| 20260504015953 | 68 | 191 | 0.0 | 0.0 | 0.00 | 0.00 | 0.00 | 60 | 1018.7 |
| 20260504015449 | 68 | 191 | 0.0 | 0.0 | 0.00 | 0.00 | 0.00 | 61 | 1018.5 |
| 20260504014945 | 69 | 191 | 0.0 | 0.0 | 0.00 | 0.00 | 0.00 | 57 | 1018.4 |
| 20260504014441 | 69 | 191 | 0.0 | 0.0 | 0.00 | 0.00 | 0.00 | 56 | 1018.4 |
| 20260504013938 | 70 | 191 | 0.0 | 0.0 | 0.00 | 0.00 | 0.00 | 55 | 1018.3 |
| 20260504013437 | 70 | 190 | 0.0 | 0.9 | 0.00 | 0.00 | 0.00 | 54 | 1018.4 |
| 20260504012932 | 71 | 187 | 0.0 | 1.7 | 0.00 | 0.00 | 0.00 | 53 | 1018.3 |
| 20260504012431 | 71 | 209 | 0.0 | 0.9 | 0.00 | 0.00 | 0.00 | 52 | 1018.3 |
| 20260504011928 | 71 | 186 | 0.9 | 0.9 | 0.00 | 0.00 | 0.00 | 51 | 1018.2 |
| 20260504011424 | 71 | 172 | 0.9 | 1.7 | 0.00 | 0.00 | 0.00 | 51 | 1018.2 |
| 20260504010920 | 72 | 204 | 0.9 | 1.7 | 0.00 | 0.00 | 0.00 | 50 | 1018.2 |
| 20260504010416 | 71 | 211 | 1.7 | 2.6 | 0.00 | 0.00 | 0.00 | 50 | 1018.2 |
| 20260504005913 | 71 | 191 | 0.0 | 0.0 | 0.00 | 0.00 | 0.00 | 51 | 1018.2 |
| 20260504005409 | 72 | 191 | 0.0 | 0.0 | 0.00 | 0.00 | 0.00 | 50 | 1018.3 |
| 20260504004907 | 73 | 191 | 0.0 | 0.0 | 0.00 | 0.00 | 0.00 | 50 | 1018.2 |
| 20260504004405 | 73 | 191 | 0.0 | 0.0 | 0.00 | 0.00 | 0.00 | 48 | 1018.2 |
| 20260504003901 | 74 | 191 | 0.0 | 0.0 | 0.00 | 0.00 | 0.00 | 48 | 1018.2 |
| 20260504003358 | 74 | 190 | 0.0 | 0.9 | 0.00 | 0.00 | 0.00 | 47 | 1018.3 |
| 20260504002854 | 75 | 190 | 0.0 | 0.9 | 0.00 | 0.00 | 0.00 | 46 | 1018.4 |
| 20260504002351 | 76 | 220 | 1.7 | 1.7 | 0.00 | 0.00 | 0.00 | 43 | 1018.4 |
| 20260504001849 | 77 | 191 | 0.0 | 0.0 | 0.00 | 0.00 | 0.00 | 43 | 1018.4 |
| 20260504001346 | 77 | 166 | 1.7 | 1.7 | 0.00 | 0.00 | 0.00 | 42 | 1018.2 |
| 20260504000843 | 77 | 190 | 0.9 | 3.5 | 0.00 | 0.00 | 0.00 | 41 | 1018.2 |
| 20260504000340 | 77 | 170 | 0.9 | 1.7 | 0.00 | 0.00 | 0.00 | 40 | 1018.4 |
| 20260503235837 | 78 | 207 | 0.0 | 2.6 | 0.00 | 0.00 | 0.00 | 40 | 1018.4 |
| 20260503235335 | 78 | 173 | 0.9 | 1.7 | 0.00 | 0.00 | 0.00 | 39 | 1018.4 |
| 20260503234832 | 79 | 218 | 1.7 | 2.6 | 0.00 | 0.00 | 0.00 | 38 | 1018.6 |
| 20260503234330 | 79 | 237 | 0.9 | 0.9 | 0.00 | 0.00 | 0.00 | 37 | 1018.3 |
| 20260503233827 | 79 | 221 | 0.9 | 3.5 | 0.00 | 0.00 | 0.00 | 39 | 1018.4 |
| 20260503233323 | 79 | 205 | 0.9 | 0.9 | 0.00 | 0.00 | 0.00 | 38 | 1018.5 |
| 20260503232820 | 78 | 210 | 1.7 | 3.5 | 0.00 | 0.00 | 0.00 | 37 | 1018.5 |
| 20260503232317 | 79 | 234 | 0.9 | 1.7 | 0.00 | 0.00 | 0.00 | 39 | 1018.5 |
| 20260503231815 | 80 | 177 | 0.9 | 1.7 | 0.00 | 0.00 | 0.00 | 36 | 1018.5 |
| 20260503231312 | 81 | 199 | 0.9 | 3.5 | 0.00 | 0.00 | 0.00 | 36 | 1018.7 |
| 20260503230808 | 81 | 207 | 1.7 | 2.6 | 0.00 | 0.00 | 0.00 | 36 | 1018.5 |
| 20260503230305 | 80 | 210 | 0.0 | 0.9 | 0.00 | 0.00 | 0.00 | 36 | 1018.7 |
| 20260503225803 | 79 | 229 | 0.0 | 2.6 | 0.00 | 0.00 | 0.00 | 38 | 1018.7 |
| 20260503225258 | 80 | 156 | 1.7 | 6.1 | 0.00 | 0.00 | 0.00 | 36 | 1018.7 |
| 20260503224755 | 79 | 206 | 1.7 | 2.6 | 0.00 | 0.00 | 0.00 | 37 | 1018.7 |
| 20260503224252 | 79 | 155 | 1.7 | 2.6 | 0.00 | 0.00 | 0.00 | 36 | 1019.0 |
| 20260503223750 | 79 | 167 | 3.5 | 3.5 | 0.00 | 0.00 | 0.00 | 36 | 1018.9 |